NUSANTARA SATU (44048 NORAD) Tracking and Keplerian Element Data

This shows tracking and keplerian element data for the satellite.

Feedback or suggestion? Click here.




ElementValue
Catalog44048
NameNUSANTARA SATU
Epoch Orbit2176
Epoch Day34.85546493
Epoch Year2025
RAAN136.1611
Inclination0.0207
Eccentricity7.74E-05
Argument of Perigee3.8201
Mean Anonmoly88.2611
Mean Motion1.00271172
Decay Rate-2.3E-06
L11 44048U 19009A 25034.85546493 -.00000230 00000+0 00000+0 0 9991
L22 44048 0.0207 136.1611 0000774 3.8201 88.2611 1.00271172 21765



Live tracking and technical data element details for NUSANTARA SATU (NORAD 44048). NUSANTARA SATU can be tracked NOW for your location showing map with azimuth and elevation plus other details from your city location.







IsCatalogInMostPopularTable: catalog: 44048, numindb: 340
Update: records affected: 1



GetName: 44048 NUSANTARA SATU

Hit Count: updated at: Fri, 16 May 2025 11:10:58 GMT